{"data":{"norad_id":87650,"intl_designator":"","name":"UNKNOWN","alt_names":[],"object_type":"UNKNOWN","status":"UNKNOWN","operator":null,"country":null,"launch_date":null,"launch_site_code":null,"launch_vehicle":null,"mission":null,"orbit_class":"UNKNOWN","rcs_meters":null,"size_class":null,"mass_kg":null,"dimensions":null,"purposes":[],"wikipedia_slug":null,"has_3d_model":false,"image_url":null,"decayed_at":null,"tle_current":{"epoch":"2026-09-05T21:24:35.079552Z","epoch_age_seconds":1276617,"freshness":"OLD","line1":"1 87650U          26248.89207268  .00004073  00000+0  73548-3 0  9993","line2":"2 87650 100.2540 134.7407 0026860 213.8061 146.1424 14.66999817118876","mean_motion":14.66999817,"eccentricity":0.002686,"inclination_deg":100.254,"raan_deg":134.7407,"arg_perigee_deg":213.8061,"mean_anomaly_deg":146.1424,"bstar":0.00073548,"rev_number":11887,"period_min":98.159521447302,"perigee_km":651.72905952601,"apogee_km":689.59520847385,"semimajor_km":7048.7991339999,"source":"CELESTRAK","updated_at":"2026-09-20T09:00:32.477677Z"}}}